Hourly Data Report for October 02, 2017

All times are specified in Local Standard Time (LST). Add 1 hour to adjust for Daylight Saving Time where and when it is observed.

CARIBOU POINT (AUT)
NOVA SCOTIA

45°46'00.000" N
62°41'00.000" W
2.40 m
8200774
71415
WBK

Download Data

Hourly Data (October 2017)
Hourly Data Report for October 2, 2017
Temp Definition
°C
Dew Point Temp Definition
°C
Rel Hum Definition
%
Wind Dir Definition
10's deg

Wind Spd Definition
km/h
Visibility Definition
km
Stn Press Definition
kPa
Hmdx Definition


Wind Chill Definition


Weather Definition


TIME
00:00 11.0 7.0 76 27 19   101.82     LegendNANA
01:00 10.8 7.5 80 27 20   101.82     LegendNANA
02:00 10.5 7.9 84 27 17   101.81     LegendNANA
03:00 14.2 9.7 75 33 33   101.78     LegendNANA
04:00 13.8 10.2 79 34 28   101.83     LegendNANA
05:00 13.3 8.9 75 36 35   101.94     LegendNANA
06:00 12.9 7.2 68 1 34   102.07     LegendNANA
07:00 12.7 6.5 66 1 35   102.17     LegendNANA
08:00 12.4 6.5 68 36 34   102.24     LegendNANA
09:00 12.2 6.0 66 36 30   102.33     LegendNANA
10:00 12.3 5.4 63 36 29   102.39     LegendNANA
11:00 12.3 4.6 59 34 32   102.43     LegendNANA
12:00 12.0 4.5 60 35 32   102.51     LegendNANA
13:00 11.6 4.9 63 36 31   102.56     LegendNANA
14:00 11.3 5.4 67 36 33   102.62     LegendNANA
15:00 11.3 4.9 65 35 36   102.70     LegendNANA
16:00 10.7 3.5 61 36 38   102.74     LegendNANA
17:00 10.3 4.9 69 36 35   102.84     LegendNANA
18:00 9.9 4.0 66 36 32   102.92     LegendNANA
19:00 10.2 5.3 72 36 34   102.99     LegendNANA
20:00 10.2 5.1 71 36 30   103.06     LegendNANA
21:00 10.3 4.5 67 1 32   103.10     LegendNANA
22:00 10.5 4.6 67 1 31   103.14     LegendNANA
23:00 10.7 4.8 67 1 29   103.17     LegendNANA

Notes on Data Quality.

Legend

  • E = Estimated
  • M = Missing
  • NA = Not Available
  • ‡ = Partner data that is not subject to review by the National Climate Archives
Date modified: